Maplewood, Minnesota, United States
Lat: 44.95N, Lon: 93W
Wx Zone: MNZ062
Local Info
Past Weather Observations for Monday, December 15, 2014

NOTE: This archive is for the closest National Weather Service station to Maplewood. Information may differ from the station used for current weather conditions.

Click here for Long-term Archive

Time Weather Temperature Dewpoint Humidity Pressure Winds Precip Visibility
23:53
Overcast
Light Snow
30°F / -1°C 28°F / -2°C 93% 29.86 in
(1011 mb)
NNW 17.3 mph
(NNW 28 kph)
0.00 in
(0.00 mm)
3SM
22:53
Overcast
Unknown Precip
34°F / 1°C 32°F / 0°C 93% 29.83 in
(1010 mb)
NNW 17.3 mph
(NNW 28 kph)
0.00 in
(0.00 mm)
10SM
21:53
Overcast
36°F / 2°C 34°F / 1°C 93% 29.8 in
(1009 mb)
N 16.1 mph
(N 26 kph)
0.02 in
(0.51 mm)
9SM
20:53
Overcast
Unknown Precip
36°F / 2°C 34°F / 1°C 93% 29.8 in
(1009 mb)
NNW 13.8 mph
(NNW 22 kph)
0.00 in
(0.00 mm)
4SM
20:18
Overcast
37°F / 3°C 36°F / 2°C 93% 29.77 in
(1008 mb)
NNW 12.7 mph
(NNW 20 kph)
- 8SM
19:53
Overcast
Fog And Mist
37°F / 3°C 36°F / 2°C 93% 29.77 in
(1008 mb)
NNW 10.4 mph
(NNW 17 kph)
0.00 in
(0.00 mm)
5SM
18:53
Overcast
Light Rain
39°F / 4°C 37°F / 3°C 93% 29.74 in
(1007 mb)
N 13.8 mph
(N 22 kph)
0.00 in
(0.00 mm)
6SM
18:43
Overcast
Light Rain
39°F / 4°C 37°F / 3°C 93% 29.74 in
(1007 mb)
N 16.1 mph
(N 26 kph)
0.00 in
(0.00 mm)
5SM
18:23
Overcast
Fog And Mist
39°F / 4°C 39°F / 4°C 100% 29.74 in
(1007 mb)
N 12.7 mph
(N 20 kph)
0.00 in
(0.00 mm)
5SM
18:06
Overcast
Light Rain
41°F / 5°C 39°F / 4°C 93% 29.74 in
(1007 mb)
N 18.4 mph
(N 30 kph)
0.00 in
(0.00 mm)
3SM
17:57
Overcast
Light Rain
43°F / 6°C 41°F / 5°C 93% 29.74 in
(1007 mb)
N 15 mph
(N 24 kph)
0.00 in
(0.00 mm)
2 1/2SM
17:53
Overcast
Light Rain
43°F / 6°C 41°F / 5°C 93% 29.71 in
(1006 mb)
N 8.1 mph
(N 13 kph)
0.00 in
(0.00 mm)
3SM
17:25
Overcast
Fog And Mist
43°F / 6°C 41°F / 5°C 93% 29.71 in
(1006 mb)
N 10.4 mph
(N 17 kph)
- 6SM
16:53
Overcast
Fog And Mist
43°F / 6°C 43°F / 6°C 100% 29.71 in
(1006 mb)
N 6.9 mph
(N 11 kph)
0.01 in
(0.25 mm)
5SM
16:18
Overcast
Light Rain
45°F / 7°C 43°F / 6°C 93% 29.71 in
(1006 mb)
N 10.4 mph
(N 17 kph)
0.00 in
(0.00 mm)
2 1/2SM
16:02
Overcast
Fog And Mist
46°F / 8°C 45°F / 7°C 93% 29.71 in
(1006 mb)
N 9.2 mph
(N 15 kph)
- 3SM
15:53
Overcast
Fog And Mist
46°F / 8°C 45°F / 7°C 93% 29.71 in
(1006 mb)
N 4.6 mph
(N 7 kph)
0.01 in
(0.25 mm)
3SM
15:29
Overcast
Fog And Mist
46°F / 8°C 45°F / 7°C 93% 29.71 in
(1006 mb)
NE 5.8 mph
(NE 9 kph)
0.01 in
(0.25 mm)
2 1/2SM
15:17
Overcast
Light Rain
46°F / 8°C 46°F / 8°C 100% 29.68 in
(1005 mb)
NNE 3.5 mph
(NNE 6 kph)
0.01 in
(0.25 mm)
1 3/4SM
15:00
Overcast
Light Rain
46°F / 8°C 45°F / 7°C 93% 29.68 in
(1005 mb)
ENE 3.5 mph
(ENE 6 kph)
0.00 in
(0.00 mm)
2 1/2SM
14:53
Overcast
Light Rain
46°F / 8°C 45°F / 7°C 93% 29.68 in
(1005 mb)
NE 4.6 mph
(NE 7 kph)
0.01 in
(0.25 mm)
1 3/4SM
14:40
Overcast
Light Rain
46°F / 8°C 45°F / 7°C 93% 29.68 in
(1005 mb)
NE 4.6 mph
(NE 7 kph)
0.01 in
(0.25 mm)
1 3/4SM
13:53
Overcast
Fog And Mist
46°F / 8°C 45°F / 7°C 93% 29.68 in
(1005 mb)
E 4.6 mph
(E 7 kph)
- 3SM
12:53
Overcast
Fog And Mist
46°F / 8°C 45°F / 7°C 93% 29.71 in
(1006 mb)
E 3.5 mph
(E 6 kph)
0.00 in
(0.00 mm)
4SM
12:11
Overcast
Light Rain
46°F / 8°C 45°F / 7°C 93% 29.71 in
(1006 mb)
E 5.8 mph
(E 9 kph)
0.00 in
(0.00 mm)
3SM
11:53
Overcast
Light Rain
46°F / 8°C 45°F / 7°C 93% 29.71 in
(1006 mb)
ENE 4.6 mph
(ENE 7 kph)
0.04 in
(1.02 mm)
2SM
11:34
Overcast
Rain
46°F / 8°C 45°F / 7°C 93% 29.74 in
(1007 mb)
E 3.5 mph
(E 6 kph)
0.02 in
(0.51 mm)
1 3/4SM
11:05
Overcast
Fog And Mist
46°F / 8°C 45°F / 7°C 93% 29.74 in
(1007 mb)
SE 8.1 mph
(SE 13 kph)
0.00 in
(0.00 mm)
2 1/2SM
10:53
Overcast
Light Rain
46°F / 8°C 45°F / 7°C 93% 29.74 in
(1007 mb)
SSE 5.8 mph
(SSE 9 kph)
0.00 in
(0.00 mm)
1 1/2SM
10:45
Overcast
Light Rain
46°F / 8°C 45°F / 7°C 93% 29.74 in
(1007 mb)
SE 6.9 mph
(SE 11 kph)
0.00 in
(0.00 mm)
1 1/4SM
10:34
Overcast
Fog And Mist
46°F / 8°C 45°F / 7°C 93% 29.74 in
(1007 mb)
SE 4.6 mph
(SE 7 kph)
- 1 3/4SM
10:24
Overcast
Fog And Mist
45°F / 7°C 45°F / 7°C 100% 29.74 in
(1007 mb)
Calm - 3SM
10:13
Overcast
Fog And Mist
45°F / 7°C 45°F / 7°C 100% 29.74 in
(1007 mb)
Calm - 2 1/2SM
10:02
Overcast
Fog And Mist
45°F / 7°C 45°F / 7°C 100% 29.74 in
(1007 mb)
W 3.5 mph
(W 6 kph)
- 3SM
09:53
Overcast
Fog And Mist
45°F / 7°C 45°F / 7°C 100% 29.74 in
(1007 mb)
NNW 3.5 mph
(NNW 6 kph)
- 2 1/2SM
09:45
Overcast
Fog And Mist
45°F / 7°C 45°F / 7°C 100% 29.74 in
(1007 mb)
NNW 4.6 mph
(NNW 7 kph)
- 2 1/2SM
09:38
Overcast
Fog And Mist
45°F / 7°C 45°F / 7°C 100% 29.74 in
(1007 mb)
NW 5.8 mph
(NW 9 kph)
- 3SM
09:18
Overcast
Fog And Mist
46°F / 8°C 45°F / 7°C 93% 29.74 in
(1007 mb)
NNW 4.6 mph
(NNW 7 kph)
- 2 1/2SM
08:53
Overcast
Fog And Mist
46°F / 8°C 46°F / 8°C 100% 29.74 in
(1007 mb)
Calm - 1 3/4SM
08:42
Overcast
Fog And Mist
46°F / 8°C 46°F / 8°C 100% 29.74 in
(1007 mb)
SSE 3.5 mph
(SSE 6 kph)
- 2 1/2SM
07:53
Overcast
Fog And Mist
46°F / 8°C 46°F / 8°C 100% 29.74 in
(1007 mb)
SSE 4.6 mph
(SSE 7 kph)
- 4SM
07:31
Overcast
Fog And Mist
48°F / 9°C 46°F / 8°C 94% 29.74 in
(1007 mb)
S 8.1 mph
(S 13 kph)
- 4SM
06:53
Overcast
Fog And Mist
48°F / 9°C 46°F / 8°C 94% 29.74 in
(1007 mb)
S 6.9 mph
(S 11 kph)
- 5SM
06:29
Overcast
Fog And Mist
48°F / 9°C 46°F / 8°C 94% 29.77 in
(1008 mb)
S 6.9 mph
(S 11 kph)
- 5SM
05:53
Overcast
Fog And Mist
48°F / 9°C 46°F / 8°C 94% 29.77 in
(1008 mb)
SSE 6.9 mph
(SSE 11 kph)
- 4SM
04:53
Overcast
Fog And Mist
48°F / 9°C 46°F / 8°C 94% 29.77 in
(1008 mb)
SE 4.6 mph
(SE 7 kph)
- 3SM
04:42
Overcast
Fog And Mist
48°F / 9°C 46°F / 8°C 94% 29.77 in
(1008 mb)
SE 5.8 mph
(SE 9 kph)
- 3SM
03:53
Overcast
Fog And Mist
48°F / 9°C 48°F / 9°C 100% 29.8 in
(1009 mb)
SSE 8.1 mph
(SSE 13 kph)
- 2 1/2SM
02:53
Overcast
Fog And Mist
48°F / 9°C 48°F / 9°C 100% 29.8 in
(1009 mb)
SSE 6.9 mph
(SSE 11 kph)
- 2 1/2SM
02:33
Overcast
Fog And Mist
48°F / 9°C 48°F / 9°C 100% 29.8 in
(1009 mb)
SSE 10.4 mph
(SSE 17 kph)
- 2SM
02:03
Overcast
Fog And Mist
48°F / 9°C 48°F / 9°C 100% 29.8 in
(1009 mb)
SSE 8.1 mph
(SSE 13 kph)
- 2 1/2SM
01:53
Overcast
Fog And Mist
48°F / 9°C 48°F / 9°C 100% 29.8 in
(1009 mb)
SSE 8.1 mph
(SSE 13 kph)
- 2SM
01:18
Overcast
Fog And Mist
46°F / 8°C 46°F / 8°C 100% 29.8 in
(1009 mb)
SSE 6.9 mph
(SSE 11 kph)
- 2SM
00:53
Overcast
Fog And Mist
46°F / 8°C 46°F / 8°C 100% 29.8 in
(1009 mb)
Calm 0.00 in
(0.00 mm)
1 3/4SM
00:46
Overcast
Fog And Mist
46°F / 8°C 46°F / 8°C 100% 29.8 in
(1009 mb)
Calm 0.00 in
(0.00 mm)
2SM
00:27
Overcast
Fog And Mist
46°F / 8°C 46°F / 8°C 100% 29.8 in
(1009 mb)
SSE 6.9 mph
(SSE 11 kph)
0.00 in
(0.00 mm)
1 1/2SM
00:19
Overcast
Light Rain
46°F / 8°C 46°F / 8°C 100% 29.8 in
(1009 mb)
SSE 5.8 mph
(SSE 9 kph)
0.00 in
(0.00 mm)
1 1/4SM
00:00
Overcast
Fog And Mist
46°F / 8°C 46°F / 8°C 100% 29.8 in
(1009 mb)
SE 5.8 mph
(SE 9 kph)
- 1 1/2SM
Time Weather Temperature Dewpoint Humidity Pressure Winds Precip Visibility


Weather for websites

WeatherForYou.com, LLC is not responsible for any damages or problems caused by this service. Current weather conditions are obtained from the closest station including government and personal stations which may have varying degrees of accuracy. Weather forecasts are derived from the NOAA NDFD. Like all things, this site belongs to Jesus Christ... He just trusts me to maintain it. If you have any questions or comments email webmaster@weatherforyou.com

Copyright © 2014, WeatherForYou.com LLC. All rights reserved.